SL-12 R/B(2), 27473

Orbit data source: Space-Track

SL-12 R/B(2), 27473 is space debris in LEO originally from a launch on Thu, 25 Jul 2002 UTC launched from the Tyuratam Missile And Space Complex (TTMTR). Debris objects in space refer to the collection of defunct objects orbiting the Earth. Examples of debris include non-operational satellites, rocket bodies, and fragments generated from explosions, collisions, or faulty payload assembly.

Loading next visibility...
Identifier
27473, 2002-037D
Orbit
LEO
Country
Flag of CISCIS
Related business
Manufacturer
RKKE
Mission
Spacecraft
Bus & Motor
BLOK DM-5, Unknown motor
Mass
~3,300 kg wet, ~3,300 kg dry
Launch date (UTC)
2002-07-25 (24 years ago)
Launch vehicle
Unknown
Launch site
Tyuratam Missile And Space Complex (TTMTR)
Object type
Payload
Rocket body
Debris
Shape & HBR
Cyl, 3.1 m
Radar Cross Section
23.684 m², Large (>1 m²)

Expand to show TLE details & history
Last TLE update: 2 days ago

TLE from 2 days ago
0 SL-12 R/B(2)
1 27473U 02037D   26171.46293772 -.00000036  00000-0  16313-3 0  9999
2 27473  63.4164 228.5065 0631607 348.2888  21.0404 12.01428990 48897
Epoch: 2026-06-20T11:06Z
TLE epoch observation values (Epoch: 2026-06-20T11:06:37.819Z)
Latitude
10.80852°
Longitude
158.62564°
Altitude
1,205.183 km
Speed
7.461 km/s
True Right ascension
15h 35m 50s
True Declination
10° 44' 57"
Sunlit
Object was in full shadow at epoch
Visualization orbit readout
Latitude
Unknown
Longitude
Unknown
Altitude
Unknown
Speed
Unknown
Apparent Right ascension
Unknown
Apparent Declination
Unknown
Sunlit
N/A
Visualization observer readout
Local Sidereal Time
01:45:38
Azimuth
Unknown
Elevation
Unknown
Doppler factor
Unknown
Orbital elements
Apogee altitude
2,181.915 km
Perigee altitude
1,164.836 km
Semi-major axis
8,051.513 km
Eccentricity
0.06316
Inclination
63.4164°
RAAN
228.5065°
Arg. of periapsis
348.2888°
True anomaly
23.84377°
Mean anomaly
21.0404°
Eccentric anomaly
22.42064°
Mean motion
3.00419 °/min
Orbital period
119.83 mins
BSTAR
0.00016313
Loading maneuver chart data...
Computing Atmospheric mass density...
Loading historical data...
Loading historical data...
Loading historical data...
Loading historical data...
Loading historical data...
Loading historical data...
Loading historical data...

Documentation

Showing up to 5 results
|